Satellite-Ground Cal/Val Site Overpasses Predictions

Prediction of Satellite NPP Overpassing Cal/Val Site: Antarctic Dome C

Ground Cal/Val Site Location: Latitude: -75.10, Longitude: 123.35; Satellite-Ground Site NADIR distance within 100 km.

Table of predicted overpasses for the next 14.0 days since TLE Epoch: 3/16/2017
Interval Starting Time Ending Time Minimum Distance Time Minimum Distance (km)
1 03/18/2017 14:54:40 03/18/2017 14:55:08 03/18/2017 14:54:54 20.19
2 03/19/2017 14:35:58 03/19/2017 14:36:12 03/19/2017 14:36:05 86.81
3 03/20/2017 07:37:28 03/20/2017 07:37:56 03/20/2017 07:37:42 34.75
4 03/21/2017 07:18:43 03/21/2017 07:19:01 03/21/2017 07:18:52 75.40
5 03/23/2017 15:00:55 03/23/2017 15:01:19 03/23/2017 15:01:07 56.86
6 03/24/2017 14:42:04 03/24/2017 14:42:28 03/24/2017 14:42:16 52.25
7 03/25/2017 07:43:44 03/25/2017 07:44:05 03/25/2017 07:43:55 69.69
8 03/26/2017 07:24:51 03/26/2017 07:25:18 03/26/2017 07:25:05 38.42
9 03/28/2017 15:07:15 03/28/2017 15:07:24 03/28/2017 15:07:20 94.18


NCC Satellite Cal/Val Overpasses Prediction Service
